Time,TemperatureF,DewpointF,PressureIn,WindDirection,WindDirectionDegrees,WindSpeedMPH,WindSpeedGustMPH,Humidity,HourlyPrecipIn,Conditions,Clouds,dailyrainin,SoftwareType,DateUTC
2013-03-26 00:04:00,35.6,27.0,29.73,NW,321,1.0,5.0,72,0.00,,,0.00,weatherlink.com 1.10,2013-03-26 04:04:00,
2013-03-26 00:19:00,35.2,28.0,29.73,WSW,256,0.0,3.0,74,0.00,,,0.00,weatherlink.com 1.10,2013-03-26 04:19:00,
2013-03-26 00:34:00,34.8,28.0,29.74,WNW,288,2.0,3.0,76,0.01,,,0.01,weatherlink.com 1.10,2013-03-26 04:34:00,
2013-03-26 00:49:00,34.0,28.0,29.74,SW,215,3.0,3.0,80,0.01,,,0.01,weatherlink.com 1.10,2013-03-26 04:49:00,
2013-03-26 01:05:00,34.8,28.0,29.74,WSW,248,2.0,4.0,76,0.01,,,0.01,weatherlink.com 1.10,2013-03-26 05:05:00,
2013-03-26 01:20:00,34.6,29.0,29.75,NNW,342,0.0,2.0,79,0.00,,,0.01,weatherlink.com 1.10,2013-03-26 05:20:00,
2013-03-26 01:35:00,34.7,29.0,29.75,SW,232,0.0,1.0,80,0.00,,,0.01,weatherlink.com 1.10,2013-03-26 05:35:00,
2013-03-26 01:50:00,34.2,29.0,29.75,SSW,200,0.0,3.0,80,0.00,,,0.01,weatherlink.com 1.10,2013-03-26 05:50:00,
2013-03-26 02:05:00,33.9,28.0,29.76,WNW,291,2.0,3.0,79,0.00,,,0.01,weatherlink.com 1.10,2013-03-26 06:05:00,
2013-03-26 02:20:00,34.2,29.0,29.76,ESE,112,0.0,1.0,80,0.00,,,0.01,weatherlink.com 1.10,2013-03-26 06:20:00,
2013-03-26 02:35:00,34.1,29.0,29.76,East,83,0.0,1.0,80,0.00,,,0.01,weatherlink.com 1.10,2013-03-26 06:35:00,
2013-03-26 02:50:00,34.1,28.0,29.77,NE,34,0.0,0.0,79,0.00,,,0.01,weatherlink.com 1.10,2013-03-26 06:50:00,
2013-03-26 03:05:00,34.0,29.0,29.77,West,281,0.0,0.0,83,0.00,,,0.01,weatherlink.com 1.10,2013-03-26 07:05:00,
2013-03-26 03:20:00,33.8,29.0,29.77,WSW,249,1.0,1.0,83,0.00,,,0.01,weatherlink.com 1.10,2013-03-26 07:20:00,
2013-03-26 03:35:00,34.2,29.0,29.77,WNW,285,0.0,3.0,81,0.00,,,0.01,weatherlink.com 1.10,2013-03-26 07:35:00,
2013-03-26 03:50:00,35.0,28.0,29.77,WSW,246,2.0,3.0,76,0.00,,,0.01,weatherlink.com 1.10,2013-03-26 07:50:00,
2013-03-26 04:05:00,35.4,28.0,29.77,WSW,246,0.0,3.0,74,0.00,,,0.01,weatherlink.com 1.10,2013-03-26 08:05:00,
2013-03-26 04:20:00,35.3,28.0,29.77,WSW,252,2.0,7.0,74,0.00,,,0.01,weatherlink.com 1.10,2013-03-26 08:20:00,
2013-03-26 04:35:00,35.2,28.0,29.77,NW,314,0.0,5.0,75,0.00,,,0.01,weatherlink.com 1.10,2013-03-26 08:35:00,
2013-03-26 04:50:00,35.3,28.0,29.77,West,259,4.0,8.0,75,0.00,,,0.01,weatherlink.com 1.10,2013-03-26 08:50:00,
2013-03-26 05:05:00,35.8,29.0,29.78,WSW,243,0.0,5.0,75,0.00,,,0.01,weatherlink.com 1.10,2013-03-26 09:05:00,
2013-03-26 05:20:00,35.9,28.0,29.78,West,281,1.0,4.0,74,0.00,,,0.01,weatherlink.com 1.10,2013-03-26 09:20:00,
2013-03-26 05:35:00,36.1,28.0,29.79,WSW,239,1.0,6.0,72,0.00,,,0.01,weatherlink.com 1.10,2013-03-26 09:35:00,
2013-03-26 05:50:00,36.1,28.0,29.79,WSW,243,2.0,5.0,73,0.00,,,0.01,weatherlink.com 1.10,2013-03-26 09:50:00,
2013-03-26 06:05:00,35.6,28.0,29.80,SSW,205,0.0,4.0,74,0.00,,,0.01,weatherlink.com 1.10,2013-03-26 10:05:00,
2013-03-26 06:20:00,34.8,28.0,29.80,WSW,246,0.0,4.0,76,0.00,,,0.01,weatherlink.com 1.10,2013-03-26 10:20:00,
2013-03-26 06:35:00,34.1,28.0,29.81,WNW,283,0.0,1.0,78,0.00,,,0.01,weatherlink.com 1.10,2013-03-26 10:35:00,
2013-03-26 06:50:00,33.8,28.0,29.81,WSW,245,0.0,2.0,79,0.00,,,0.01,weatherlink.com 1.10,2013-03-26 10:50:00,
2013-03-26 07:05:00,33.5,28.0,29.82,SW,228,3.0,4.0,81,0.00,,,0.01,weatherlink.com 1.10,2013-03-26 11:05:00,
2013-03-26 07:20:00,33.5,28.0,29.82,NW,316,0.0,4.0,81,0.00,,,0.01,weatherlink.com 1.10,2013-03-26 11:20:00,
2013-03-26 07:35:00,33.8,29.0,29.83,WSW,243,0.0,1.0,81,0.00,,,0.01,weatherlink.com 1.10,2013-03-26 11:35:00,
2013-03-26 07:50:00,34.3,29.0,29.83,WSW,245,0.0,1.0,81,0.00,,,0.01,weatherlink.com 1.10,2013-03-26 11:50:00,
2013-03-26 08:05:00,34.6,29.0,29.85,NNW,342,0.0,1.0,79,0.00,,,0.01,weatherlink.com 1.10,2013-03-26 12:05:00,
2013-03-26 08:21:00,35.5,29.0,29.85,West,274,1.0,3.0,78,0.00,,,0.01,weatherlink.com 1.10,2013-03-26 12:21:00,
2013-03-26 08:36:00,36.1,30.0,29.85,NW,307,3.0,4.0,77,0.00,,,0.01,weatherlink.com 1.10,2013-03-26 12:36:00,
2013-03-26 08:51:00,36.7,29.0,29.86,WNW,287,1.0,2.0,75,0.00,,,0.01,weatherlink.com 1.10,2013-03-26 12:51:00,
2013-03-26 09:06:00,37.0,29.0,29.87,North,11,0.0,2.0,74,0.00,,,0.01,weatherlink.com 1.10,2013-03-26 13:06:00,
2013-03-26 10:06:00,36.9,31.0,29.90,North,349,9.0,11.0,80,0.01,,,0.02,weatherlink.com 1.10,2013-03-26 14:06:00,
2013-03-26 10:21:00,36.3,32.0,29.90,NNE,25,9.0,9.0,83,0.01,,,0.03,weatherlink.com 1.10,2013-03-26 14:21:00,
2013-03-26 10:36:00,37.6,32.0,29.90,NNE,30,6.0,7.0,80,0.02,,,0.04,weatherlink.com 1.10,2013-03-26 14:36:00,
2013-03-26 10:51:00,38.6,31.0,29.91,NNE,30,5.0,6.0,75,0.03,,,0.05,weatherlink.com 1.10,2013-03-26 14:51:00,
2013-03-26 11:06:00,40.0,30.0,29.91,NNE,27,4.0,7.0,67,0.04,,,0.06,weatherlink.com 1.10,2013-03-26 15:06:00,
2013-03-26 11:21:00,39.7,29.0,29.91,North,350,4.0,6.0,67,0.04,,,0.07,weatherlink.com 1.10,2013-03-26 15:21:00,
2013-03-26 11:36:00,40.3,26.0,29.91,NNW,330,9.0,12.0,57,0.03,,,0.07,weatherlink.com 1.10,2013-03-26 15:36:00,
2013-03-26 11:51:00,41.1,25.0,29.92,NW,314,9.0,10.0,53,0.03,,,0.08,weatherlink.com 1.10,2013-03-26 15:51:00,
2013-03-26 12:21:00,41.7,25.0,29.92,West,275,4.0,19.0,52,0.02,,,0.09,weatherlink.com 1.10,2013-03-26 16:21:00,
2013-03-26 12:36:00,41.4,22.0,29.92,NW,319,9.0,14.0,47,0.03,,,0.10,weatherlink.com 1.10,2013-03-26 16:36:00,
2013-03-26 12:51:00,41.8,24.0,29.92,WNW,298,16.0,18.0,49,0.02,,,0.10,weatherlink.com 1.10,2013-03-26 16:51:00,
2013-03-26 13:06:00,41.3,24.0,29.92,NNW,347,5.0,15.0,51,0.02,,,0.11,weatherlink.com 1.10,2013-03-26 17:06:00,
2013-03-26 13:21:00,41.0,25.0,29.93,NW,324,13.0,21.0,53,0.02,,,0.11,weatherlink.com 1.10,2013-03-26 17:21:00,
2013-03-26 13:36:00,41.5,24.0,29.92,NW,310,6.0,12.0,51,0.02,,,0.12,weatherlink.com 1.10,2013-03-26 17:36:00,
2013-03-26 14:06:00,42.4,25.0,29.92,NW,308,7.0,16.0,50,0.02,,,0.13,weatherlink.com 1.10,2013-03-26 18:06:00,
2013-03-26 14:21:00,42.9,25.0,29.92,West,267,11.0,15.0,50,0.02,,,0.13,weatherlink.com 1.10,2013-03-26 18:21:00,
2013-03-26 14:36:00,42.5,24.0,29.92,NW,321,5.0,15.0,49,0.02,,,0.14,weatherlink.com 1.10,2013-03-26 18:36:00,
2013-03-26 14:51:00,42.4,25.0,29.92,NW,322,15.0,16.0,50,0.02,,,0.14,weatherlink.com 1.10,2013-03-26 18:51:00,
2013-03-26 15:07:00,42.3,25.0,29.92,WNW,301,11.0,17.0,51,0.01,,,0.14,weatherlink.com 1.10,2013-03-26 19:07:00,
2013-03-26 15:22:00,41.5,26.0,29.92,NW,307,11.0,18.0,55,0.01,,,0.14,weatherlink.com 1.10,2013-03-26 19:22:00,
2013-03-26 15:37:00,41.9,26.0,29.92,NNW,335,9.0,17.0,53,0.00,,,0.14,weatherlink.com 1.10,2013-03-26 19:37:00,
2013-03-26 15:52:00,42.2,26.0,29.92,NW,316,11.0,18.0,53,0.00,,,0.14,weatherlink.com 1.10,2013-03-26 19:52:00,
2013-03-26 16:07:00,42.2,26.0,29.92,NW,304,10.0,15.0,54,0.00,,,0.14,weatherlink.com 1.10,2013-03-26 20:07:00,
2013-03-26 16:22:00,42.5,27.0,29.93,NW,321,10.0,14.0,54,0.00,,,0.14,weatherlink.com 1.10,2013-03-26 20:22:00,
2013-03-26 16:37:00,42.7,26.0,29.92,NNW,332,11.0,18.0,53,0.00,,,0.14,weatherlink.com 1.10,2013-03-26 20:37:00,
2013-03-26 16:52:00,43.0,27.0,29.92,NW,323,10.0,13.0,54,0.00,,,0.14,weatherlink.com 1.10,2013-03-26 20:52:00,
2013-03-26 17:07:00,42.9,26.0,29.93,SW,226,8.0,18.0,51,0.00,,,0.14,weatherlink.com 1.10,2013-03-26 21:07:00,
2013-03-26 17:22:00,43.7,26.0,29.93,WNW,300,7.0,15.0,51,0.00,,,0.14,weatherlink.com 1.10,2013-03-26 21:22:00,
2013-03-26 17:37:00,44.1,27.0,29.94,West,269,2.0,17.0,52,0.00,,,0.14,weatherlink.com 1.10,2013-03-26 21:37:00,
2013-03-26 17:52:00,43.7,26.0,29.94,NW,305,6.0,12.0,51,0.00,,,0.14,weatherlink.com 1.10,2013-03-26 21:52:00,
2013-03-26 18:07:00,43.4,26.0,29.95,NW,307,8.0,17.0,51,0.00,,,0.14,weatherlink.com 1.10,2013-03-26 22:07:00,
2013-03-26 18:22:00,42.8,26.0,29.95,NW,312,7.0,17.0,52,0.00,,,0.14,weatherlink.com 1.10,2013-03-26 22:22:00,
2013-03-26 18:37:00,42.7,26.0,29.96,WNW,298,7.0,12.0,53,0.00,,,0.14,weatherlink.com 1.10,2013-03-26 22:37:00,
2013-03-26 18:52:00,43.0,27.0,29.97,NW,307,4.0,10.0,53,0.00,,,0.14,weatherlink.com 1.10,2013-03-26 22:52:00,
2013-03-26 19:07:00,42.4,28.0,29.97,SW,229,7.0,12.0,56,0.00,,,0.14,weatherlink.com 1.10,2013-03-26 23:07:00,
2013-03-26 19:22:00,41.6,27.0,29.98,WNW,288,6.0,15.0,56,0.00,,,0.14,weatherlink.com 1.10,2013-03-26 23:22:00,
2013-03-26 19:37:00,41.1,28.0,29.99,NW,311,10.0,19.0,59,0.00,,,0.14,weatherlink.com 1.10,2013-03-26 23:37:00,
2013-03-26 19:52:00,40.5,29.0,30.00,NW,314,3.0,13.0,63,0.00,,,0.14,weatherlink.com 1.10,2013-03-26 23:52:00,
2013-03-26 20:07:00,40.0,29.0,30.00,WNW,291,9.0,16.0,65,0.00,,,0.14,weatherlink.com 1.10,2013-03-27 00:07:00,
2013-03-26 20:22:00,39.6,30.0,30.01,West,281,6.0,12.0,68,0.00,,,0.14,weatherlink.com 1.10,2013-03-27 00:22:00,
2013-03-26 20:37:00,38.9,30.0,30.02,WNW,295,4.0,10.0,70,0.00,,,0.14,weatherlink.com 1.10,2013-03-27 00:37:00,
2013-03-26 20:52:00,38.6,30.0,30.02,NW,318,1.0,4.0,70,0.00,,,0.14,weatherlink.com 1.10,2013-03-27 00:52:00,
2013-03-26 21:07:00,37.1,30.0,30.03,WNW,284,1.0,2.0,74,0.00,,,0.14,weatherlink.com 1.10,2013-03-27 01:07:00,
2013-03-26 21:22:00,37.4,29.0,30.03,West,281,0.0,1.0,73,0.00,,,0.14,weatherlink.com 1.10,2013-03-27 01:22:00,
2013-03-26 21:37:00,35.6,30.0,30.04,WNW,288,2.0,3.0,79,0.00,,,0.14,weatherlink.com 1.10,2013-03-27 01:37:00,
2013-03-26 21:52:00,35.4,30.0,30.04,WSW,249,1.0,3.0,79,0.00,,,0.14,weatherlink.com 1.10,2013-03-27 01:52:00,
2013-03-26 22:07:00,36.1,29.0,30.05,WNW,291,1.0,4.0,76,0.00,,,0.14,weatherlink.com 1.10,2013-03-27 02:07:00,
2013-03-26 22:22:00,35.0,29.0,30.05,WNW,284,1.0,3.0,80,0.00,,,0.14,weatherlink.com 1.10,2013-03-27 02:22:00,
2013-03-26 22:37:00,34.5,29.0,30.05,WSW,242,0.0,2.0,79,0.00,,,0.14,weatherlink.com 1.10,2013-03-27 02:37:00,
2013-03-26 22:55:00,34.0,29.0,30.05,WSW,258,0.0,1.0,81,0.00,,,0.14,weatherlink.com 1.10,2013-03-27 02:55:00,
2013-03-26 23:07:00,33.4,29.0,30.06,West,281,2.0,3.0,82,0.00,,,0.14,weatherlink.com 1.10,2013-03-27 03:07:00,
2013-03-26 23:22:00,34.4,29.0,30.06,WNW,290,2.0,4.0,81,0.00,,,0.14,weatherlink.com 1.10,2013-03-27 03:22:00,
2013-03-26 23:37:00,34.4,29.0,30.06,WNW,302,0.0,4.0,82,0.00,,,0.14,weatherlink.com 1.10,2013-03-27 03:37:00,
2013-03-26 23:52:00,34.5,30.0,30.06,WNW,302,1.0,2.0,82,0.00,,,0.14,weatherlink.com 1.10,2013-03-27 03:52:00,